Regional Weather Roundup
Issued by NWS State College, PA

Home | Current Version | Previous Version | Text Only | Print | Product List | Glossary Off
Versions: 1 2 3 4 5 6 7 8 9 10 11 12 13 14 15 16 17 18 19 20 21 22 23 24 25 26 27 28 29 30 31 32 33 34 35 36 37 38 39 40 41 42 43 44 45 46 47 48 49 50

000
ASUS41 KCTP 300010
RWRCTP

REGIONAL WEATHER ROUNDUP
NATIONAL WEATHER SERVICE STATE COLLEGE PA
800 PM EDT TUE JUL 29 2014

Note: "fair" indicates few or no clouds below 12,000 feet with no
significant weather and/or obstructions to visibility.

* = STATION THAT DOES NOT REPORT PRECIPITATION /E.G. RAIN...SNOW...ETC/
    THUNDER OR FOG.

PAZ002>004-007>009-013>016-020>023-029>032-300100-
WESTERN PENNSYLVANIA

CITY           SKY/WX    TMP DP  RH WIND       PRES   REMARKS
ERIE           PTCLDY    65  50  58 SW8       29.99F
MEADVILLE      PTCLDY    62  52  69 CALM      30.02R
FRANKLIN*      MOCLDY    61  52  72 SW5       30.03S
NEW CASTLE       N/A     61  56  83 CALM      30.03R
BEAVER COUNTY  CLEAR     64  52  63 W5        30.03R
BUTLER*        PTCLDY    63  52  67 SW3       30.05R
PITTSBURGH INT PTCLDY    65  51  60 W5        30.03R
PITTSBURGH     MOCLDY    64  49  57 W6        30.02S
INDIANA*       CLOUDY    63  52  67 CALM      30.07S
LATROBE        MOCLDY    63  55  77 SW7       30.04S
WASHINGTON CO* PTCLDY    61  55  82 CALM      30.04S
$$

PAZ004>006-010>012-017>019-024>028-033>037-041-042-045-046-049>053-300100-
CENTRAL PENNSYLVANIA

CITY           SKY/WX    TMP DP  RH WIND       PRES   REMARKS
BRADFORD       MOCLDY    60  50  69 NW3       30.02R
DUBOIS         PTCLDY    59  53  80 SW3       30.02R
CLEARFIELD     CLOUDY    61  52  72 SW5       30.02R
JOHNSTOWN      CLOUDY    58  49  72 W6        30.04S
ALTOONA        MOCLDY    62  54  74 SW3       30.03S
STATE COLLEGE  PTCLDY    61  54  77 W5        30.01R
WILLIAMSPORT   CLEAR     65  50  58 W7        29.97R
SELINSGROVE    CLOUDY    65  57  75 CALM      29.99R
FT INDIANTOWN  MOCLDY    66  58  75 NW3       29.99R
CAPITAL CITY   MOCLDY    65  50  58 W5        29.99R
HARRISBURG     MOCLDY    69  49  48 N6        29.98R
YORK           CLOUDY    67  54  63 NW3       29.99R
$$

PAZ038>040-043-044-047-048-054-055-060>062-067>071-300100-
EASTERN PENNSYLVANIA

CITY           SKY/WX    TMP DP  RH WIND       PRES   REMARKS
SCRANTON       CLOUDY    67  50  54 N3        29.98R
MOUNT POCONO   CLOUDY    61  49  64 NW7       30.00R
ALLENTOWN      CLOUDY    69  54  58 CALM      29.97R
QUAKERTOWN*    MOCLDY    66  54  63 CALM      29.98R
READING        MOCLDY    69  52  54 NW8       29.97R
LANCASTER      CLOUDY    66  53  63 NW6       29.98R
COATESVILLE    MOCLDY    66  66 100 NW3       29.99R
POTTSTOWN      CLOUDY    68  54  60 N5        29.98R
BLUE BELL      MOCLDY    70  57  64 CALM      29.96R
DOYLESTOWN     CLOUDY    69  52  54 CALM      29.96R
WILLOW GROVE   NOT AVBL
NORTH PHILA    CLOUDY    73  51  46 NW6       29.97R
PHILADELPHIA   CLOUDY    74  52  46 NW9       29.96R
$$



USA.gov is the U.S. government's official web portal to all federal, state and local government web resources and services.